[[{"header":{"parameterUnit":"m.s-1","parameterCategory":1,"la1":30.2991,"la2":30.254,"lo1":-89.0895,"lo2":-89.0444,"dy":0.0017,"dx":0.0017,"nx":28,"ny":28,"refTime":"2025-05-28T09:00:00:Z","depth":0,"parameterNumber":2,"parameterNumberName":"U-component_of_WINDS"},"data":[0,0,0,0,0,0,0,0,0,0,0,0,0,0,0,0,0,0,0,0,0,0,0,0,0,0,0,0,0,0,0,0,0,0,0,0,0,0,0,0,0,0,0,0,0,0,0,0,0,0,0,0,0,0,0,0,0,0,0.0947,0.0949,0,0.1164,0.1167,0.1169,0.1258,0.1257,0.1257,0.1256,0.1487,0.1494,0.15,0,0,0,0,0,0,0,0,0,0,0,0,0,0.062,0.0625,0.0947,0.095,0.0952,0.1164,0.1167,0.117,0.1258,0.1257,0.1257,0.1256,0.1485,0.1493,0.1501,0,0,0,0,0,0,0,0,0,0,0,0,0,0.0792,0.0627,0.0947,0.1022,0.1031,0.1163,0.1167,0.1171,0.1258,0.1257,0.1257,0.1256,0.1482,0.1492,0.1502,0.1578,0,0,0.1532,0.1536,0,0,0,0,0,0,0,0,0.0782,0.0804,0.1008,0.1017,0.1027,0.1183,0.1136,0.1308,0.1258,0.1172,0.1256,0.1255,0.1387,0.1405,0.1447,0.1589,0.1599,0.1533,0.1539,0.1543,0.1546,0,0,0,0,0,0,0,0.077,0.0795,0.1033,0.1011,0.1022,0.1048,0.1072,0.1169,0.1282,0.1179,0.1186,0.121,0.1392,0.1438,0.1454,0.1602,0.1533,0.1542,0.1548,0.1552,0.1824,0.1825,0,0,0,0,0,0,0.0744,0.0785,0.1026,0.104,0.09,0.1055,0.1081,0.1134,0.1281,0.1302,0.1211,0.1214,0.1421,0.1442,0.1462,0.1565,0.1543,0.1553,0.1558,0.1823,0.1824,0.1826,0,0,0,0,0,0,0.0737,0.0765,0.1018,0.0914,0.0948,0.1061,0.112,0.1138,0.1184,0.1304,0.1326,0.1236,0.1421,0.1448,0.1549,0.1574,0.1557,0.1566,0.1821,0.1823,0.1825,0.1768,0,0,0,0,0,0,0.0727,0.0762,0.0789,0.0914,0.0953,0.1097,0.1121,0.1143,0.12,0.1206,0.1333,0.1354,0.1423,0.1534,0.1559,0.1587,0.1574,0.182,0.1822,0.1824,0.1768,0.1768,0.1767,0,0,0,0,0,0.0715,0.0765,0.079,0.0819,0.0989,0.1099,0.1122,0.1197,0.1201,0.1232,0.131,0.135,0.1567,0.1544,0.1573,0.1604,0.1818,0.1821,0.1824,0.1769,0.1768,0.1767,0,0,0,0,0,0,0.0642,0.0783,0.0812,0.0903,0.0988,0.1113,0.1154,0.1194,0.1281,0.1283,0.1377,0.1405,0.1499,0.1562,0.1534,0.1689,0.1696,0.1705,0.1644,0.1644,0.1644,0.1627,0.1582,0,0,0,0,0,0.0636,0.071,0.083,0.0899,0.094,0.1039,0.109,0.1141,0.1234,0.1271,0.1357,0.1448,0.1538,0.1594,0.1683,0.1778,0.181,0.1815,0.1814,0.1813,0.182,0.188,0.1884,0.1835,0.1835,0.1835,0,0,0.0626,0.0712,0.0753,0.0887,0.0959,0.1037,0.1069,0.115,0.121,0.1285,0.1385,0.1452,0.1561,0.166,0.1708,0.1715,0.1841,0.1817,0.1815,0.1823,0.1883,0.1888,0.1892,0.1837,0.1837,0.1836,0,0,0.0646,0.0717,0.0784,0.0855,0.0963,0.103,0.1046,0.1166,0.1213,0.1315,0.1374,0.1449,0.1599,0.1676,0.1734,0.1788,0.183,0.1815,0.1813,0.187,0.1874,0.1878,0.1901,0.1907,0.1821,0.1821,0.1821,0,0.062,0.0736,0.0814,0.0892,0.0951,0.1021,0.1092,0.1159,0.1292,0.1333,0.1338,0.1532,0.161,0.173,0.1743,0.1787,0.1813,0.1801,0.1866,0.1871,0.1876,0.1899,0.1907,0.1819,0.1819,0.1819,0.1819,0,0.0701,0.0781,0.0823,0.0947,0.1012,0.1086,0.1179,0.1235,0.1282,0.1349,0.1456,0.1552,0.1663,0.1696,0.1742,0.1824,0.1826,0.1847,0.1857,0.1877,0.19,0.191,0.1815,0.1816,0.1817,0.1817,0,0,0.0679,0.0847,0.0861,0.092,0.1047,0.1113,0.1193,0.1299,0.1348,0.1438,0.151,0.1638,0.166,0.1727,0.1783,0.1833,0.1875,0.185,0.1854,0.1854,0.1977,0.196,0.1969,0.1903,0.1905,0.1907,0.1968,0,0.0718,0.086,0.0934,0.1046,0.1125,0.1194,0.1265,0.1352,0.1418,0.1498,0.1572,0.1662,0.1683,0.1724,0.1776,0.1858,0.1901,0.1855,0.1976,0.1979,0.1947,0.198,0.1963,0.2016,0.1978,0.1979,0.198,0,0.0781,0.0869,0.0989,0.111,0.1146,0.1207,0.1313,0.1387,0.149,0.1535,0.161,0.1667,0.1759,0.1761,0.1892,0.1859,0.1914,0.1962,0.1966,0.1981,0.1981,0.1999,0.2035,0.2043,0.1995,0.1994,0.1993,0,0.0757,0.0906,0.0997,0.1046,0.1188,0.1231,0.1293,0.1395,0.1456,0.155,0.1592,0.1696,0.1754,0.1836,0.1921,0.1914,0.2045,0.2054,0.2089,0.2087,0.2114,0.2111,0.2161,0.2145,0.2145,0.2145,0.2145,0,0.0793,0.0864,0.0989,0.1045,0.1129,0.1216,0.1298,0.1366,0.1457,0.1532,0.1599,0.1669,0.1776,0.186,0.1928,0.2029,0.2054,0.2096,0.2114,0.2091,0.2086,0.2129,0.2128,0.2147,0.2147,0.2146,0.2146,0,0.0779,0.0865,0.097,0.1097,0.1131,0.1187,0.1298,0.1359,0.1429,0.1523,0.1551,0.1662,0.1766,0.1859,0.1996,0.2042,0.2146,0.2166,0.211,0.212,0.2151,0.2148,0.2231,0.2249,0.2218,0.2219,0.2219,0,0.0797,0.0853,0.0987,0.104,0.1101,0.1186,0.1249,0.1339,0.1402,0.1526,0.1573,0.1681,0.1772,0.1935,0.2031,0.2138,0.2164,0.2186,0.218,0.2157,0.2168,0.2164,0.2172,0.2185,0.2185,0.2185,0.2185,0,0.0821,0.0861,0.0947,0.1049,0.1122,0.1207,0.1295,0.1337,0.1444,0.1513,0.1618,0.1689,0.183,0.1938,0.2057,0.2126,0.2175,0.2186,0.22,0.2178,0.2144,0.2167,0.211,0.2184,0.2184,0.2184,0.2184,0.2184,0.0825,0.088,0.0983,0.1079,0.1154,0.1236,0.13,0.1378,0.1467,0.1587,0.1636,0.1744,0.1853,0.2016,0.2086,0.2175,0.2185,0.2204,0.221,0.2214,0.2212,0.2129,0.2197,0.2197,0.2197,0.2197,0.2198,0,0.0855,0.0925,0.1012,0.1132,0.1209,0.1246,0.1347,0.1409,0.1503,0.1598,0.1686,0.1811,0.1917,0.2023,0.2136,0.2188,0.2214,0.2215,0.2213,0.2229,0.2195,0.2172,0.2192,0.2192,0.2192,0.2192,0.2192,0.2192,0.0879,0.0975,0.1028,0.1165,0.1237,0.1341,0.1396,0.1474,0.155,0.1685,0.1773,0.184,0.1942,0.2064,0.2165,0.2194,0.2234,0.223,0.2265,0.2231,0.2231,0.223,0.221,0.2237,0.2237,0.2293,0.2293,0.2293]},{"header":{"parameterUnit":"m.s-1","parameterCategory":1,"la1":30.2991,"la2":30.254,"lo1":-89.0895,"lo2":-89.0444,"dy":0.0017,"dx":0.0017,"nx":28,"ny":28,"refTime":"2025-05-28T09:00:00:Z","depth":0,"parameterNumber":3,"parameterNumberName":"V-component_of_WINDS"},"data":[0,0,0,0,0,0,0,0,0,0,0,0,0,0,0,0,0,0,0,0,0,0,0,0,0,0,0,0,0,0,0,0,0,0,0,0,0,0,0,0,0,0,0,0,0,0,0,0,0,0,0,0,0,0,0,0,0,0,-4.1544,-4.1543,0,-4.1499,-4.1498,-4.1498,-4.1433,-4.1432,-4.1431,-4.143,-4.1381,-4.138,-4.138,0,0,0,0,0,0,0,0,0,0,0,0,0,-4.157,-4.157,-4.1544,-4.1543,-4.1543,-4.1499,-4.1498,-4.1497,-4.1433,-4.1432,-4.143,-4.1429,-4.1381,-4.1381,-4.138,0,0,0,0,0,0,0,0,0,0,0,0,0,-4.1545,-4.157,-4.1544,-4.1505,-4.1502,-4.1499,-4.1498,-4.1497,-4.1433,-4.1432,-4.143,-4.1429,-4.1381,-4.1381,-4.138,-4.1411,0,0,-4.1379,-4.1379,0,0,0,0,0,0,0,0,-4.1547,-4.1544,-4.1512,-4.1508,-4.1504,-4.147,-4.1489,-4.1468,-4.1434,-4.1459,-4.143,-4.1428,-4.1412,-4.1409,-4.1404,-4.1408,-4.1406,-4.1379,-4.1379,-4.1378,-4.1378,0,0,0,0,0,0,0,-4.1549,-4.1546,-4.1526,-4.1511,-4.1506,-4.1489,-4.1484,-4.1485,-4.1445,-4.1457,-4.1452,-4.1448,-4.1409,-4.1404,-4.1402,-4.1406,-4.1379,-4.1378,-4.1378,-4.1378,-4.1428,-4.143,0,0,0,0,0,0,-4.1556,-4.1548,-4.1527,-4.1524,-4.1522,-4.149,-4.1484,-4.1482,-4.1445,-4.1438,-4.1449,-4.1445,-4.1406,-4.1403,-4.14,-4.143,-4.1378,-4.1378,-4.1378,-4.1427,-4.1429,-4.143,0,0,0,0,0,0,-4.1557,-4.1555,-4.1529,-4.1535,-4.153,-4.1491,-4.149,-4.1482,-4.1477,-4.1439,-4.1431,-4.1452,-4.1404,-4.1401,-4.1408,-4.1428,-4.1378,-4.1377,-4.1425,-4.1427,-4.1429,-4.1493,0,0,0,0,0,0,-4.1558,-4.1556,-4.1569,-4.1536,-4.153,-4.1539,-4.1491,-4.1483,-4.1477,-4.1471,-4.144,-4.1433,-4.1403,-4.1409,-4.1407,-4.1426,-4.1377,-4.1423,-4.1426,-4.1429,-4.1489,-4.1497,-4.1504,0,0,0,0,0,-4.156,-4.1588,-4.157,-4.1567,-4.1545,-4.1541,-4.1537,-4.1503,-4.1479,-4.149,-4.1465,-4.1434,-4.1426,-4.141,-4.1408,-4.1427,-4.1421,-4.1425,-4.1428,-4.1485,-4.1495,-4.1504,0,0,0,0,0,0,-4.1625,-4.1584,-4.1562,-4.1582,-4.1565,-4.153,-4.1543,-4.1515,-4.1505,-4.15,-4.1456,-4.145,-4.1461,-4.1445,-4.1428,-4.1452,-4.1419,-4.1422,-4.1462,-4.1472,-4.1479,-4.1482,-4.1377,0,0,0,0,0,-4.1641,-4.1642,-4.1606,-4.1626,-4.1619,-4.1583,-4.158,-4.1554,-4.1535,-4.1528,-4.1503,-4.1485,-4.1477,-4.1474,-4.1466,-4.1486,-4.1476,-4.1498,-4.1505,-4.1512,-4.1515,-4.152,-4.1528,-4.1442,-4.1442,-4.1442,0,0,-4.1676,-4.1653,-4.1657,-4.1639,-4.1623,-4.1623,-4.1577,-4.158,-4.1579,-4.1528,-4.1532,-4.1514,-4.149,-4.1503,-4.1507,-4.1489,-4.1536,-4.1517,-4.1522,-4.1521,-4.1525,-4.1533,-4.154,-4.1444,-4.1444,-4.1444,0,0,-4.1738,-4.1722,-4.1736,-4.1721,-4.1698,-4.1673,-4.1676,-4.1644,-4.163,-4.1634,-4.1594,-4.1591,-4.1581,-4.1565,-4.1555,-4.1608,-4.1577,-4.1606,-4.1646,-4.1652,-4.1659,-4.1664,-4.168,-4.1686,-4.161,-4.161,-4.161,0,-4.1783,-4.1783,-4.1747,-4.1751,-4.1743,-4.1697,-4.1708,-4.1695,-4.167,-4.1665,-4.1646,-4.1629,-4.161,-4.1617,-4.1629,-4.1624,-4.1624,-4.1609,-4.1661,-4.1666,-4.1671,-4.1685,-4.1692,-4.1613,-4.1613,-4.1613,-4.1612,0,-4.1838,-4.1838,-4.1852,-4.1829,-4.1822,-4.1831,-4.1794,-4.1791,-4.1766,-4.1742,-4.1745,-4.172,-4.1704,-4.1704,-4.168,-4.1706,-4.1695,-4.1669,-4.1634,-4.1683,-4.1696,-4.1701,-4.1618,-4.1617,-4.1616,-4.1615,0,0,-4.194,-4.1895,-4.1901,-4.1888,-4.1858,-4.1856,-4.1861,-4.1846,-4.1843,-4.1827,-4.1828,-4.1819,-4.1793,-4.1782,-4.1755,-4.1761,-4.18,-4.1733,-4.1732,-4.1744,-4.1823,-4.1841,-4.1848,-4.178,-4.1781,-4.1781,-4.1823,0,-4.1995,-4.2002,-4.1968,-4.1983,-4.198,-4.1935,-4.1939,-4.1919,-4.1897,-4.189,-4.1864,-4.1857,-4.1826,-4.1819,-4.1822,-4.1795,-4.1814,-4.1791,-4.1777,-4.1777,-4.1783,-4.1855,-4.1875,-4.1916,-4.1829,-4.1829,-4.183,0,-4.2059,-4.2046,-4.2061,-4.2027,-4.2024,-4.2029,-4.201,-4.2005,-4.1981,-4.1963,-4.195,-4.1918,-4.1918,-4.1886,-4.1882,-4.1867,-4.1859,-4.1844,-4.1845,-4.184,-4.1805,-4.185,-4.1929,-4.1934,-4.1838,-4.1837,-4.1837,0,-4.2129,-4.2115,-4.2121,-4.2112,-4.2073,-4.2076,-4.206,-4.2034,-4.2026,-4.2009,-4.2003,-4.1986,-4.1977,-4.1963,-4.1927,-4.1907,-4.1926,-4.1892,-4.1909,-4.191,-4.1914,-4.1914,-4.199,-4.1913,-4.1913,-4.1913,-4.1913,0,-4.2192,-4.2202,-4.2151,-4.2155,-4.2163,-4.2123,-4.2132,-4.2111,-4.2088,-4.2085,-4.2045,-4.2042,-4.1995,-4.1986,-4.1957,-4.1957,-4.1953,-4.1937,-4.1929,-4.194,-4.1941,-4.1932,-4.1928,-4.1914,-4.1914,-4.1914,-4.1913,0,-4.2271,-4.2238,-4.224,-4.2203,-4.2194,-4.2202,-4.2168,-4.2168,-4.2143,-4.2139,-4.2135,-4.2094,-4.2081,-4.2044,-4.2022,-4.2002,-4.2008,-4.1995,-4.2017,-4.2011,-4.203,-4.2027,-4.2101,-4.2107,-4.2029,-4.203,-4.203,0,-4.2312,-4.2318,-4.2281,-4.2277,-4.2262,-4.2256,-4.2247,-4.2206,-4.2198,-4.2169,-4.2172,-4.2156,-4.2141,-4.2122,-4.2089,-4.207,-4.2054,-4.2081,-4.2051,-4.206,-4.2051,-4.205,-4.2049,-4.2087,-4.2088,-4.2089,-4.209,0,-4.2388,-4.2371,-4.236,-4.2343,-4.2334,-4.2319,-4.2301,-4.2299,-4.2253,-4.2246,-4.2232,-4.2221,-4.2197,-4.218,-4.2156,-4.2136,-4.2104,-4.21,-4.2102,-4.2112,-4.2123,-4.2114,-4.2032,-4.2098,-4.2097,-4.2096,-4.2096,-4.2096,-4.2447,-4.245,-4.2423,-4.2412,-4.2394,-4.2378,-4.2375,-4.2349,-4.2337,-4.2316,-4.2292,-4.228,-4.2251,-4.2216,-4.2198,-4.2186,-4.217,-4.2174,-4.2175,-4.2176,-4.2179,-4.2127,-4.2182,-4.2182,-4.2181,-4.2181,-4.2181,0,-4.2519,-4.2499,-4.2489,-4.2465,-4.2455,-4.2428,-4.2406,-4.2399,-4.2389,-4.2366,-4.2352,-4.2334,-4.2317,-4.2281,-4.226,-4.2257,-4.2241,-4.2252,-4.2251,-4.2246,-4.2197,-4.2196,-4.2265,-4.2265,-4.2265,-4.2265,-4.2265,-4.2265,-4.2555,-4.2556,-4.2535,-4.2526,-4.2506,-4.2495,-4.2484,-4.2467,-4.2448,-4.2431,-4.2417,-4.2394,-4.2365,-4.234,-4.2322,-4.2311,-4.2304,-4.2319,-4.2304,-4.2258,-4.225,-4.2243,-4.2241,-4.2319,-4.2319,-4.2354,-4.2354,-4.2354]}]]